This is the latest recevied weather packets stored in our database for station/object LU4EGV-13. If no packets are shown the sender has not sent any weather packets the latest 10 day(s).
| Time | Temp. | Humidity | Pressure | Rain* | Wind** | Luminosity | Snow |
|---|---|---|---|---|---|---|---|
| 1777389579 | 18.89° C | 33% | 1013.6 hPa | 0 mm | - | - | - |
| 1777388972 | 18.89° C | 33% | 1013.3 hPa | 0 mm | - | - | - |
| 1777388367 | 18.33° C | 33% | 1013.5 hPa | 0 mm | - | - | - |
| 1777387761 | 18.33° C | 33% | 1013.6 hPa | 0 mm | - | - | - |
| 1777387154 | 17.78° C | 34% | 1013.7 hPa | 0 mm | - | - | - |
| 1777386548 | 17.78° C | 32% | 1013.7 hPa | 0 mm | - | - | - |
| 1777385942 | 16.67° C | 32% | 1013.9 hPa | 0 mm | - | - | - |
| 1777385336 | 17.22° C | 33% | 1013.8 hPa | 0 mm | - | - | - |
| 1777384729 | 16.67° C | 33% | 1014 hPa | 0 mm | - | - | - |
| 1777384125 | 16.11° C | 35% | 1013.9 hPa | 0 mm | - | - | - |
| 1777383518 | 15.56° C | 35% | 1014 hPa | 0 mm | - | - | - |
| 1777382923 | 15° C | 38% | 1014 hPa | 0 mm | - | - | - |
| 1777382305 | 15° C | 40% | 1014.2 hPa | 0 mm | - | - | - |
| 1777381702 | 13.89° C | 41% | 1014.4 hPa | 0 mm | - | - | - |
| 1777381092 | 13.33° C | 42% | 1014.4 hPa | 0 mm | - | - | - |
| 1777380486 | 13.33° C | 41% | 1014.4 hPa | 0 mm | - | - | - |
| 1777379880 | 13.33° C | 43% | 1014.7 hPa | 0 mm | - | - | - |
| 1777379274 | 13.33° C | 43% | 1014.6 hPa | 0 mm | - | - | - |
| 1777378668 | 12.78° C | 44% | 1014.5 hPa | 0 mm | - | - | - |
| 1777378062 | 12.22° C | 43% | 1014.3 hPa | 0 mm | - | - | - |
| 1777377455 | 11.67° C | 46% | 1014.4 hPa | 0 mm | - | - | - |
| 1777376849 | 11.67° C | 49% | 1014.4 hPa | 0 mm | - | - | - |
| 1777376243 | 11.67° C | 50% | 1014.4 hPa | 0 mm | - | - | - |
| 1777375640 | 11.11° C | 51% | 1014.3 hPa | 0 mm | - | - | - |
| 1777375030 | 11.11° C | 55% | 1014.3 hPa | 0 mm | - | - | - |
* Rain latest hour (hover to see other rain measurements)
** Current wind speed in m/s (hover to see current wind gust speed)